TimePDT,TemperatureF,Dew PointF,Humidity,Sea Level PressureIn,VisibilityMPH,Wind Direction,Wind SpeedMPH,Gust SpeedMPH,PrecipitationIn,Events,Conditions,WindDirDegrees,DateUTC
12:53 AM,37.9,21.9,53,30.04,10.0,South,9.2,-,N/A,,Clear,180,2013-04-28 07:53:00
1:53 AM,37.0,19.9,50,30.04,10.0,South,12.7,-,N/A,,Clear,170,2013-04-28 08:53:00
2:53 AM,34.0,19.9,56,30.04,10.0,South,12.7,-,N/A,,Clear,170,2013-04-28 09:53:00
3:53 AM,35.1,21.0,57,30.03,10.0,South,15.0,-,N/A,,Clear,170,2013-04-28 10:53:00
4:53 AM,33.1,19.9,59,30.04,10.0,South,12.7,-,N/A,,Clear,170,2013-04-28 11:53:00
5:53 AM,33.8,19.4,56,30.20,10.0,South,13.8,-,N/A,,Clear,170,2013-04-28 12:53:00
6:53 AM,37.9,21.9,53,30.02,10.0,SSE,9.2,-,N/A,,Clear,160,2013-04-28 13:53:00
7:53 AM,51.1,26.1,38,30.01,10.0,SSE,9.2,-,N/A,,Clear,160,2013-04-28 14:53:00
8:53 AM,62.1,24.1,23,29.97,10.0,South,5.8,-,N/A,,Clear,180,2013-04-28 15:53:00
9:53 AM,68.0,21.0,17,29.96,10.0,NNW,3.5,-,N/A,,Clear,330,2013-04-28 16:53:00
10:53 AM,71.1,21.9,16,29.95,10.0,WNW,15.0,21.9,N/A,,Clear,290,2013-04-28 17:53:00
11:53 AM,73.0,21.9,15,29.94,10.0,North,10.4,17.3,N/A,,Clear,350,2013-04-28 18:53:00
12:53 PM,73.9,19.9,13,29.93,10.0,West,9.2,23.0,N/A,,Partly Cloudy,270,2013-04-28 19:53:00
1:53 PM,75.2,21.2,13,30.12,10.0,WSW,9.2,23.0,N/A,,Partly Cloudy,250,2013-04-28 20:53:00
2:53 PM,75.9,21.9,13,29.89,10.0,WNW,12.7,21.9,N/A,,Partly Cloudy,300,2013-04-28 21:53:00
3:53 PM,73.0,19.9,14,29.89,10.0,WNW,11.5,20.7,N/A,,Clear,290,2013-04-28 22:53:00
4:53 PM,73.4,24.8,16,30.07,10.0,WNW,15.0,21.9,N/A,,Clear,300,2013-04-28 23:53:00
5:53 PM,73.0,23.0,15,29.87,10.0,NW,16.1,23.0,N/A,,Clear,310,2013-04-29 00:53:00
6:53 PM,66.9,21.0,17,29.87,10.0,NNW,12.7,-,N/A,,Clear,330,2013-04-29 01:53:00
7:53 PM,60.1,19.0,20,29.86,10.0,West,6.9,-,N/A,,Clear,280,2013-04-29 02:53:00
8:53 PM,55.0,19.0,24,29.86,10.0,WNW,4.6,-,N/A,,Clear,300,2013-04-29 03:53:00
9:53 PM,46.0,19.9,35,29.89,10.0,SSE,4.6,-,N/A,,Clear,160,2013-04-29 04:53:00
10:53 PM,53.1,21.0,29,29.85,10.0,NNW,5.8,-,N/A,,Clear,340,2013-04-29 05:53:00
11:53 PM,46.9,19.9,34,29.87,10.0,Calm,Calm,-,N/A,,Clear,0,2013-04-29 06:53:00